Location: Unspecified
(41.9000°N, 12.4830°E)
Time: 08:19:44

ISS - Pass Details

Date: 02 March 2018
Orbit: 403 x 406 km, 51.6° (Epoch: 23 March)

Event Time Altitude Azimuth Distance (km) Brightness Sun altitude
Exits shadow 06:03:34 11° 265° (W) 1,392 -1.8 -8.3°
Maximum altitude 06:06:27 37° 333° (NNW) 655 -3.0 -7.8°
Drops below altitude 10° 06:09:33 10° 43° (NE) 1,467 -0.4 -7.2°
Sets 06:11:44 0° 52° (NE) 2,328 0.9 -6.8°
